Terminal Aerodrome Forecast
Issued by NWS La Crosse, WI

Home | Current Version | Previous Version | Text Only | Print | Product List | Glossary On
Versions: 1 2 3 4 5 6 7 8 9 10 11 12 13 14 15 16 17 18 19 20 21 22 23 24 25 26 27 28 29 30 31 32 33 34 35 36
000
FTUS43 KARX 061602 AAC
TAFRST
TAF AMD
KRST 061602Z 0616/0712 20013KT P6SM VCSH OVC080
     FM061800 32014KT 5SM -SHRA BR BKN015
     FM062100 34015KT P6SM BKN015
     FM062300 34012KT P6SM SCT015=

USA.gov is the U.S. government's official web portal to all federal, state and local government web resources and services.